This demonstration page uses our WeatherBlox Daily Observations layout. Learn more.

Hourly Observations for May 1, 2015

Temp ( °F °C ) Dew Point ( °F °C ) Humidity (%) Winds ( mph kmh ) Pressure ( in mb ) Visibility ( mi km ) Precip ( " mm )
12:15 am 00:15 Clear 58 14.4 42 5.4 55 55 SE 10 17 29.97 1015 10 16.0934 0 0
12:35 am 00:35 Clear 57 14 42 5.5 57 57 SE 9 15 29.97 1015 10 16.0934 0 0
12:55 am 00:55 Clear 57 13.7 42 5.4 58 58 SE 10 17 29.97 1015 10 16.0934 0 0
1:15 am 01:15 Clear 56 13.6 41 5.1 57 57 SSE 7 11 30 1016 10 16.0934 0 0
1:35 am 01:35 Clear 56 13.5 41 5.1 57 57 S 8 13 30 1016 10 16.0934 0 0
1:55 am 01:55 Clear 56 13.5 42 5.3 58 58 S 8 13 30 1016 10 16.0934 0 0
2:15 am 02:15 Clear 57 13.7 42 5.3 57 57 S 9 15 30 1016 10 16.0934 0 0
2:35 am 02:35 Clear 58 14.3 42 5.3 55 55 S 6 9 30 1016 10 16.0934 0 0
2:55 am 02:55 Clear 55 12.9 42 5.5 61 61 Calm 30 1016 10 16.0934 0 0
3:15 am 03:15 Clear 56 13.2 42 5.6 60 60 SE 8 13 30 1016 10 16.0934 0 0
3:35 am 03:35 Clear 56 13.5 42 5.5 59 59 SSE 8 13 29.97 1015 10 16.0934 0 0
3:55 am 03:55 Clear 55 12.8 42 5.5 61 61 S 7 11 29.97 1015 10 16.0934 0 0
4:15 am 04:15 Clear 56 13.5 42 5.6 59 59 S 10 17 30 1016 10 16.0934 0 0
4:35 am 04:35 Partly Cloudy 57 14 42 5.3 56 56 S 14 22 30 1016 10 16.0934 0 0
4:55 am 04:55 Mostly Cloudy 56 13.6 42 5.5 58 58 S 9 15 30 1016 10 16.0934 0 0
5:15 am 05:15 Mostly Cloudy 56 13.6 42 5.5 58 58 SSE 7 11 30 1016 10 16.0934 0 0
5:35 am 05:35 Mostly Cloudy 56 13.2 42 5.7 61 61 SE 9 15 30 1016 10 16.0934 0 0
5:55 am 05:55 Partly Cloudy 55 13 42 5.6 61 61 SE 5 7 30 1016 10 16.0934 0 0
6:15 am 06:15 Partly Cloudy 54 12.3 42 5.7 64 64 ESE 7 11 30.03 1017 10 16.0934 0 0
6:35 am 06:35 Clear 55 12.5 42 5.8 64 64 SSE 7 11 29.97 1015 10 16.0934 0 0
6:55 am 06:55 Sunny 54 12 43 6 67 67 SSE 5 7 30.03 1017 10 16.0934 0 0
7:15 am 07:15 Sunny 53 11.5 44 6.8 73 73 SSE 6 9 30.03 1017 10 16.0934 0 0
7:35 am 07:35 Mostly Cloudy 54 12.4 45 7.2 71 71 S 8 13 30.03 1017 10 16.0934 0 0
7:55 am 07:55 Mostly Cloudy 55 13 46 7.6 70 70 S 9 15 30 1016 10 16.0934 0 0
8:15 am 08:15 Partly Cloudy 55 13 47 8.1 72 72 S 12 19 30 1016 10 16.0934 0 0
8:35 am 08:35 Partly Cloudy 56 13.6 48 9 74 74 S 9 15 30 1016 10 16.0934 0 0
8:55 am 08:55 Partly Cloudy 58 14.5 48 9.1 70 70 SSW 9 15 30 1016 10 16.0934 0 0
9:15 am 09:15 Partly Cloudy 59 15.1 48 8.8 66 66 W 10 17 30 1016 10 16.0934 0 0
9:35 am 09:35 Sunny 59 14.8 47 8.5 66 66 NW 13 20 30.03 1017 10 16.0934 0 0
9:55 am 09:55 Sunny 58 14.6 47 8.3 66 66 NW 9 15 30.03 1017 10 16.0934 0 0
10:15 am 10:15 Sunny 61 16.2 48 8.8 62 62 NW 8 13 30.03 1017 10 16.0934 0 0
10:35 am 10:35 Sunny 63 17.4 47 8.6 56 56 NW 9 15 30 1016 10 16.0934 0 0
10:55 am 10:55 Sunny 64 18 47 8.3 53 53 NNW 10 17 30 1016 10 16.0934 0 0
11:15 am 11:15 Sunny 65 18.6 47 8.3 51 51 NNW 9 15 30 1016 10 16.0934 0 0
11:35 am 11:35 Sunny 67 19.3 48 8.7 50 50 NW 12 19 30 1016 10 16.0934 0 0
11:55 am 11:55 Sunny 67 19.6 48 8.7 50 50 NNW 10 17 30 1016 10 16.0934 0 0
12:15 pm 12:15 Sunny 69 20.3 48 9.1 49 49 N 10 17 30 1016 10 16.0934 0 0
12:35 pm 12:35 Sunny 70 20.9 49 9.2 47 47 NW 6 9 29.97 1015 10 16.0934 0 0
12:55 pm 12:55 Sunny 71 21.5 48 8.7 44 44 NNE 8 13 29.97 1015 10 16.0934 0 0
1:15 pm 13:15 Sunny 72 22.1 49 9.2 44 44 NNW 6 9 29.97 1015 10 16.0934 0 0
1:35 pm 13:35 Sunny 72 22.4 48 8.9 42 42 NNW 7 11 29.97 1015 10 16.0934 0 0
1:55 pm 13:55 Sunny 73 22.5 49 9.3 43 43 NNW 5 7 29.97 1015 10 16.0934 0 0
2:15 pm 14:15 Sunny 73 22.5 47 8.5 41 41 N 6 9 29.97 1015 10 16.0934 0 0
2:35 pm 14:35 Sunny 75 23.7 48 8.9 39 39 NNW 8 13 29.91 1013 10 16.0934 0 0
2:55 pm 14:55 Sunny 74 23.1 48 8.9 40 40 NW 6 9 29.94 1014 10 16.0934 0 0
3:15 pm 15:15 Sunny 74 23.6 47 8.6 38 38 WNW 3 6 29.91 1013 10 16.0934 0 0
3:35 pm 15:35 Sunny 74 23.6 47 8.5 38 38 NW 6 9 29.91 1013 10 16.0934 0 0
3:55 pm 15:55 Sunny 75 23.9 47 8.5 38 38 NE 5 7 29.88 1012 10 16.0934 0 0
4:15 pm 16:15 Partly Cloudy 75 24 47 8.1 36 36 NW 7 11 29.88 1012 10 16.0934 0 0
4:35 pm 16:35 Partly Cloudy 76 24.5 47 8.1 35 35 SSW 5 7 29.88 1012 10 16.0934 0 0
4:55 pm 16:55 Sunny 76 24.5 46 7.6 34 34 Calm 29.88 1012 10 16.0934 0 0
5:15 pm 17:15 Sunny 76 24.6 46 7.6 34 34 Calm 29.85 1011 10 16.0934 0 0
5:35 pm 17:35 Partly Cloudy 75 23.7 45 7.4 35 35 Calm 29.85 1011 10 16.0934 0 0
5:55 pm 17:55 Mostly Cloudy 75 24 47 8.2 37 37 N 6 9 29.85 1011 10 16.0934 0 0
6:15 pm 18:15 Cloudy 75 23.8 45 7.3 35 35 Calm 29.85 1011 10 16.0934 0 0
6:35 pm 18:35 Mostly Cloudy 75 23.8 45 7.4 35 35 Calm 29.85 1011 10 16.0934 0 0
6:55 pm 18:55 Sunny 75 24 39 3.9 27 27 SSE 15 24 29.83 1010 10 16.0934 0 0
7:15 pm 19:15 Mostly Cloudy 74 23.1 48 8.7 40 40 NNE 3 6 29.85 1011 10 16.0934 0 0
7:35 pm 19:35 Mostly Cloudy 73 22.8 49 9.5 43 43 NNE 5 7 29.85 1011 10 16.0934 0 0
7:55 pm 19:55 Mostly Cloudy 72 22.2 48 8.8 42 42 NNE 5 7 29.88 1012 10 16.0934 0 0
8:15 pm 20:15 Mostly Cloudy 70 21.1 48 9 46 46 ENE 5 7 29.88 1012 10 16.0934 0 0
8:35 pm 20:35 Partly Cloudy 69 20.7 48 8.8 47 47 E 5 7 29.88 1012 10 16.0934 0 0
8:55 pm 20:55 Partly Cloudy 66 18.7 47 8.5 52 52 ENE 7 11 29.91 1013 10 16.0934 0 0
9:15 pm 21:15 Mostly Cloudy 68 20.1 48 9.1 49 49 E 7 11 29.88 1012 10 16.0934 0 0
9:35 pm 21:35 Cloudy 67 19.7 48 9 50 50 E 8 13 29.91 1013 10 16.0934 0 0
9:55 pm 21:55 Partly Cloudy 65 18.2 49 9.3 56 56 E 7 11 29.94 1014 10 16.0934 0 0
10:15 pm 22:15 Partly Cloudy 63 17.1 49 9.6 62 62 ESE 6 9 29.94 1014 10 16.0934 0 0
10:35 pm 22:35 Mostly Cloudy 62 16.9 51 10.4 66 66 ESE 6 9 29.94 1014 10 16.0934 0 0
10:55 pm 22:55 Mostly Cloudy 63 17 51 10.8 67 67 E 8 13 29.94 1014 10 16.0934 0 0
11:15 pm 23:15 Mostly Cloudy 64 17.7 52 11 65 65 ESE 8 13 29.94 1014 10 16.0934 0 0
11:35 pm 23:35 Partly Cloudy 63 17.2 52 11 67 67 SE 9 15 29.94 1014 10 16.0934 0 0
11:55 pm 23:55 Partly Cloudy 62 16.6 52 11 70 70 ESE 8 13 29.94 1014 10 16.0934 0 0

Powered by AerisWeather